| time (UTC) | temp F | wind direction | speed knots | gust knots | rain 1hr in | rain 24hr in | rain mn in | humidity % | barometer mb |
| 20260505153343 | 76 | 101 | 0.0 | 0.9 | 0.00 | 0.00 | 0.00 | 85 | 1011.8 |
| 20260505152840 | 76 | 91 | 0.0 | 0.9 | 0.00 | 0.00 | 0.00 | 85 | 1011.9 |
| 20260505152338 | 76 | 99 | 0.0 | 0.9 | 0.00 | 0.00 | 0.00 | 85 | 1011.8 |
| 20260505151837 | 76 | 99 | 0.0 | 0.0 | 0.00 | 0.00 | 0.00 | 85 | 1011.9 |
| 20260505151334 | 76 | 84 | 0.0 | 0.0 | 0.00 | 0.00 | 0.00 | 85 | 1011.8 |
| 20260505150832 | 76 | 98 | 0.0 | 0.0 | 0.00 | 0.00 | 0.00 | 85 | 1011.6 |
| 20260505150329 | 76 | 114 | 0.0 | 0.0 | 0.00 | 0.00 | 0.00 | 85 | 1011.6 |
| 20260505140258 | 73 | 87 | 0.9 | 3.5 | 0.00 | 0.00 | 0.00 | 88 | 1011.4 |
| 20260505130222 | 72 | 89 | 0.0 | 0.9 | 0.00 | 0.00 | 0.00 | 90 | 1011.6 |
| 20260505124712 | 72 | 84 | 0.0 | 0.9 | 0.00 | 0.00 | 0.00 | 90 | 1011.5 |
| 20260505124209 | 72 | 113 | 0.0 | 0.9 | 0.00 | 0.00 | 0.00 | 90 | 1011.3 |
| 20260505123705 | 72 | 103 | 0.0 | 0.9 | 0.00 | 0.00 | 0.00 | 90 | 1011.2 |
| 20260505123202 | 72 | 104 | 0.0 | 0.0 | 0.00 | 0.00 | 0.00 | 90 | 1011.2 |
| 20260505122658 | 72 | 94 | 0.0 | 0.0 | 0.00 | 0.00 | 0.00 | 90 | 1011.1 |
| 20260505122156 | 72 | 103 | 0.0 | 0.0 | 0.00 | 0.00 | 0.00 | 90 | 1010.9 |
| 20260505121652 | 72 | 156 | 0.0 | 0.0 | 0.00 | 0.00 | 0.00 | 89 | 1010.7 |
| 20260505121149 | 72 | 85 | 0.9 | 1.7 | 0.00 | 0.00 | 0.00 | 89 | 1010.8 |
| 20260505120645 | 72 | 70 | 0.9 | 2.6 | 0.00 | 0.00 | 0.00 | 90 | 1010.9 |
| 20260505120141 | 72 | 104 | 0.0 | 0.9 | 0.00 | 0.00 | 0.00 | 89 | 1010.8 |
| 20260505115635 | 72 | 107 | 0.0 | 0.9 | 0.00 | 0.00 | 0.00 | 89 | 1010.9 |
| 20260505115133 | 72 | 102 | 0.0 | 0.9 | 0.00 | 0.00 | 0.00 | 89 | 1010.8 |
| 20260505114630 | 71 | 109 | 0.0 | 0.9 | 0.00 | 0.00 | 0.00 | 89 | 1011.0 |
| 20260505114126 | 72 | 97 | 0.0 | 0.9 | 0.00 | 0.00 | 0.00 | 89 | 1011.0 |
| 20260505113622 | 72 | 227 | 0.0 | 0.9 | 0.00 | 0.00 | 0.00 | 89 | 1010.8 |
| 20260505113119 | 72 | 113 | 0.0 | 1.7 | 0.00 | 0.00 | 0.00 | 89 | 1010.8 |
| 20260505112615 | 72 | 121 | 0.9 | 1.7 | 0.00 | 0.00 | 0.00 | 89 | 1011.0 |
| 20260505112114 | 72 | 113 | 0.0 | 1.7 | 0.00 | 0.00 | 0.00 | 89 | 1010.8 |
| 20260505111614 | 72 | 96 | 0.0 | 0.9 | 0.00 | 0.00 | 0.00 | 89 | 1010.8 |
| 20260505111110 | 71 | 123 | 0.0 | 1.7 | 0.00 | 0.00 | 0.00 | 89 | 1010.7 |
| 20260505110606 | 71 | 129 | 0.0 | 0.9 | 0.00 | 0.00 | 0.00 | 89 | 1010.7 |
| 20260505102039 | 71 | 106 | 0.0 | 0.0 | 0.00 | 0.00 | 0.00 | 89 | 1010.7 |
| 20260505101537 | 71 | 97 | 0.0 | 0.9 | 0.00 | 0.00 | 0.00 | 89 | 1010.6 |
| 20260505101033 | 71 | 114 | 0.0 | 1.7 | 0.00 | 0.00 | 0.00 | 89 | 1010.9 |
| 20260505100530 | 71 | 43 | 0.9 | 1.7 | 0.00 | 0.00 | 0.00 | 89 | 1010.9 |
| 20260505100027 | 71 | 101 | 0.0 | 0.0 | 0.00 | 0.00 | 0.00 | 89 | 1011.1 |
| 20260505095523 | 71 | 111 | 0.0 | 0.9 | 0.00 | 0.00 | 0.00 | 89 | 1011.0 |
| 20260505095019 | 71 | 102 | 0.0 | 0.0 | 0.00 | 0.00 | 0.00 | 89 | 1010.9 |
| 20260505094516 | 71 | 98 | 0.0 | 0.0 | 0.00 | 0.00 | 0.00 | 89 | 1010.8 |
| 20260505094013 | 71 | 142 | 0.0 | 1.7 | 0.00 | 0.00 | 0.00 | 89 | 1010.9 |
| 20260505093509 | 71 | 73 | 0.9 | 0.9 | 0.00 | 0.00 | 0.00 | 89 | 1011.1 |
| 20260505093007 | 71 | 90 | 0.0 | 0.9 | 0.00 | 0.00 | 0.00 | 88 | 1011.1 |
| 20260505092504 | 71 | 102 | 0.0 | 0.0 | 0.00 | 0.00 | 0.00 | 88 | 1011.2 |
| 20260505092001 | 71 | 88 | 0.0 | 0.0 | 0.00 | 0.00 | 0.00 | 88 | 1011.1 |
| 20260505091459 | 71 | 102 | 0.0 | 0.0 | 0.00 | 0.00 | 0.00 | 88 | 1011.2 |
| 20260505090957 | 70 | 111 | 0.0 | 0.0 | 0.00 | 0.00 | 0.00 | 88 | 1011.4 |
| 20260505090455 | 70 | 91 | 0.0 | 0.0 | 0.00 | 0.00 | 0.00 | 88 | 1011.3 |
| 20260505085952 | 70 | 87 | 0.0 | 0.0 | 0.00 | 0.00 | 0.00 | 88 | 1011.2 |
| 20260505085449 | 70 | 85 | 0.0 | 0.0 | 0.00 | 0.00 | 0.00 | 88 | 1011.2 |
| 20260505084948 | 70 | 103 | 0.0 | 0.9 | 0.00 | 0.00 | 0.00 | 87 | 1011.4 |
| 20260505084446 | 71 | 106 | 0.0 | 0.9 | 0.00 | 0.00 | 0.00 | 87 | 1011.4 |
| 20260505083943 | 71 | 132 | 0.9 | 0.9 | 0.00 | 0.00 | 0.00 | 87 | 1011.5 |
| 20260505083440 | 71 | 107 | 0.0 | 0.0 | 0.00 | 0.00 | 0.00 | 87 | 1011.5 |
| 20260505082936 | 71 | 95 | 0.0 | 0.0 | 0.00 | 0.00 | 0.00 | 87 | 1011.5 |
| 20260505082432 | 71 | 89 | 0.0 | 0.0 | 0.00 | 0.00 | 0.00 | 86 | 1011.6 |
| 20260505081930 | 70 | 74 | 0.0 | 0.0 | 0.00 | 0.00 | 0.00 | 86 | 1011.6 |
| 20260505081426 | 70 | 90 | 0.0 | 0.0 | 0.00 | 0.00 | 0.00 | 87 | 1011.5 |
| 20260505080923 | 70 | 85 | 0.0 | 0.0 | 0.00 | 0.00 | 0.00 | 86 | 1011.6 |
| 20260505080419 | 70 | 81 | 0.0 | 0.0 | 0.00 | 0.00 | 0.00 | 86 | 1011.8 |
| 20260505075914 | 70 | 98 | 0.0 | 0.0 | 0.00 | 0.00 | 0.00 | 86 | 1011.6 |
| 20260505075412 | 70 | 80 | 0.0 | 0.9 | 0.00 | 0.00 | 0.00 | 86 | 1011.6 |
| 20260505074909 | 70 | 79 | 0.0 | 0.0 | 0.00 | 0.00 | 0.00 | 86 | 1011.7 |
| 20260505074406 | 70 | 76 | 0.0 | 1.7 | 0.00 | 0.00 | 0.00 | 86 | 1011.8 |
| 20260505073903 | 70 | 102 | 0.0 | 0.0 | 0.00 | 0.00 | 0.00 | 85 | 1011.7 |
| 20260505073401 | 70 | 85 | 0.0 | 0.0 | 0.00 | 0.00 | 0.00 | 85 | 1011.7 |
| 20260505072858 | 70 | 97 | 0.0 | 0.0 | 0.00 | 0.00 | 0.00 | 85 | 1011.8 |
| 20260505072354 | 70 | 84 | 0.0 | 0.0 | 0.00 | 0.00 | 0.00 | 85 | 1012.0 |
| 20260505071850 | 70 | 117 | 0.0 | 0.0 | 0.00 | 0.00 | 0.00 | 85 | 1012.0 |
| 20260505071346 | 70 | 107 | 0.0 | 0.0 | 0.00 | 0.00 | 0.00 | 85 | 1012.3 |
| 20260505070845 | 70 | 96 | 0.0 | 0.0 | 0.00 | 0.00 | 0.00 | 84 | 1012.2 |
| 20260505070341 | 70 | 110 | 0.0 | 0.0 | 0.00 | 0.00 | 0.00 | 84 | 1012.2 |
| 20260505065836 | 70 | 117 | 0.0 | 0.0 | 0.00 | 0.00 | 0.00 | 84 | 1012.1 |
| 20260505065333 | 70 | 110 | 0.0 | 0.0 | 0.00 | 0.00 | 0.00 | 84 | 1012.1 |
| 20260505064830 | 70 | 119 | 0.0 | 0.0 | 0.00 | 0.00 | 0.00 | 84 | 1012.2 |
| 20260505064327 | 70 | 97 | 0.0 | 0.0 | 0.00 | 0.00 | 0.00 | 83 | 1012.3 |
| 20260505063826 | 70 | 107 | 0.0 | 0.0 | 0.00 | 0.00 | 0.00 | 83 | 1012.3 |
| 20260505063321 | 70 | 115 | 0.0 | 0.0 | 0.00 | 0.00 | 0.00 | 83 | 1012.4 |
| 20260505062818 | 70 | 101 | 0.0 | 0.0 | 0.00 | 0.00 | 0.00 | 83 | 1012.7 |
| 20260505062316 | 70 | 86 | 0.0 | 0.0 | 0.00 | 0.00 | 0.00 | 83 | 1012.5 |
| 20260505061812 | 70 | 112 | 0.0 | 0.0 | 0.00 | 0.00 | 0.00 | 82 | 1012.5 |
| 20260505061310 | 70 | 93 | 0.0 | 0.0 | 0.00 | 0.00 | 0.00 | 82 | 1012.4 |
| 20260505060808 | 70 | 119 | 0.0 | 0.0 | 0.00 | 0.00 | 0.00 | 82 | 1012.7 |
| 20260505060304 | 70 | 92 | 0.0 | 0.0 | 0.00 | 0.00 | 0.00 | 82 | 1012.7 |
| 20260505055800 | 71 | 87 | 0.0 | 0.0 | 0.00 | 0.00 | 0.00 | 82 | 1012.7 |
| 20260505055256 | 71 | 123 | 0.0 | 0.0 | 0.00 | 0.00 | 0.00 | 81 | 1012.6 |
| 20260505054754 | 71 | 101 | 0.0 | 0.0 | 0.00 | 0.00 | 0.00 | 81 | 1012.5 |
| 20260505054251 | 71 | 97 | 0.0 | 0.0 | 0.00 | 0.00 | 0.00 | 81 | 1012.6 |
| 20260505053749 | 71 | 112 | 0.0 | 0.0 | 0.00 | 0.00 | 0.00 | 81 | 1012.5 |
| 20260505053245 | 71 | 125 | 0.0 | 0.0 | 0.00 | 0.00 | 0.00 | 80 | 1012.5 |
| 20260505052743 | 71 | 94 | 0.0 | 0.0 | 0.00 | 0.00 | 0.00 | 80 | 1012.8 |
| 20260505052240 | 71 | 85 | 0.0 | 0.0 | 0.00 | 0.00 | 0.00 | 80 | 1012.6 |
| 20260505051736 | 71 | 128 | 0.0 | 0.0 | 0.00 | 0.00 | 0.00 | 80 | 1012.7 |
| 20260505051235 | 71 | 93 | 0.0 | 0.0 | 0.00 | 0.00 | 0.00 | 80 | 1012.7 |
| 20260505050732 | 71 | 127 | 0.0 | 0.0 | 0.00 | 0.00 | 0.00 | 80 | 1012.8 |
| 20260505050230 | 71 | 107 | 0.0 | 0.0 | 0.00 | 0.00 | 0.00 | 80 | 1012.9 |
| 20260505041700 | 72 | 102 | 0.0 | 0.0 | 0.00 | 0.00 | 0.00 | 78 | 1012.8 |
| 20260505041157 | 72 | 85 | 0.0 | 0.0 | 0.00 | 0.00 | 0.00 | 78 | 1012.8 |
| 20260505040654 | 72 | 99 | 0.0 | 0.0 | 0.00 | 0.00 | 0.00 | 77 | 1012.7 |
| 20260505040152 | 73 | 128 | 0.0 | 0.9 | 0.00 | 0.00 | 0.00 | 76 | 1012.8 |
| 20260505035648 | 73 | 123 | 0.9 | 1.7 | 0.00 | 0.00 | 0.00 | 76 | 1012.8 |
| 20260505035144 | 73 | 88 | 0.0 | 0.9 | 0.00 | 0.00 | 0.00 | 76 | 1012.8 |
| 20260505034641 | 73 | 102 | 0.0 | 0.0 | 0.00 | 0.00 | 0.00 | 76 | 1012.9 |
| 20260505034138 | 73 | 84 | 0.0 | 1.7 | 0.00 | 0.00 | 0.00 | 76 | 1012.7 |
| 20260505033634 | 73 | 109 | 0.9 | 2.6 | 0.00 | 0.00 | 0.00 | 75 | 1012.8 |
| 20260505033133 | 73 | 91 | 0.0 | 0.0 | 0.00 | 0.00 | 0.00 | 75 | 1012.8 |
| 20260505032631 | 73 | 106 | 0.0 | 0.0 | 0.00 | 0.00 | 0.00 | 75 | 1012.8 |
| 20260505032127 | 74 | 104 | 0.0 | 0.9 | 0.00 | 0.00 | 0.00 | 74 | 1012.8 |
| 20260505031624 | 74 | 97 | 0.0 | 0.9 | 0.00 | 0.00 | 0.00 | 73 | 1013.1 |
| 20260505031120 | 74 | 111 | 0.0 | 0.9 | 0.00 | 0.00 | 0.00 | 73 | 1012.7 |
| 20260505030617 | 74 | 111 | 2.6 | 2.6 | 0.00 | 0.00 | 0.00 | 73 | 1012.9 |
| 20260505030113 | 74 | 103 | 0.0 | 0.0 | 0.00 | 0.00 | 0.00 | 72 | 1012.8 |
| 20260505025609 | 75 | 105 | 3.5 | 5.2 | 0.00 | 0.00 | 0.00 | 72 | 1012.9 |
| 20260505025108 | 75 | 107 | 0.0 | 6.1 | 0.00 | 0.00 | 0.00 | 72 | 1012.7 |
| 20260505024605 | 75 | 112 | 0.0 | 0.0 | 0.00 | 0.00 | 0.00 | 72 | 1012.9 |
| 20260505024102 | 75 | 95 | 0.0 | 0.9 | 0.00 | 0.00 | 0.00 | 72 | 1012.7 |
| 20260505023559 | 75 | 93 | 0.0 | 0.0 | 0.00 | 0.00 | 0.00 | 71 | 1012.6 |
| 20260505023057 | 75 | 125 | 0.9 | 1.7 | 0.00 | 0.00 | 0.00 | 71 | 1012.7 |
| 20260505022554 | 75 | 97 | 0.9 | 6.1 | 0.00 | 0.00 | 0.00 | 71 | 1012.6 |
| 20260505022051 | 75 | 110 | 0.0 | 0.9 | 0.00 | 0.00 | 0.00 | 71 | 1012.5 |
| 20260505021547 | 75 | 104 | 0.0 | 1.7 | 0.00 | 0.00 | 0.00 | 70 | 1012.7 |
| 20260505021044 | 75 | 83 | 0.9 | 2.6 | 0.00 | 0.00 | 0.00 | 70 | 1012.6 |
| 20260505020544 | 75 | 111 | 0.0 | 1.7 | 0.00 | 0.00 | 0.00 | 70 | 1012.6 |
| 20260505020041 | 75 | 113 | 0.0 | 0.0 | 0.00 | 0.00 | 0.00 | 71 | 1012.8 |
| 20260505015538 | 75 | 116 | 0.0 | 0.0 | 0.00 | 0.00 | 0.00 | 71 | 1012.6 |
| 20260505015035 | 75 | 105 | 0.0 | 0.0 | 0.00 | 0.00 | 0.00 | 70 | 1012.6 |
| 20260505014532 | 75 | 118 | 0.0 | 0.0 | 0.00 | 0.00 | 0.00 | 70 | 1012.4 |
| 20260505014029 | 75 | 107 | 0.0 | 0.0 | 0.00 | 0.00 | 0.00 | 70 | 1012.4 |
| 20260505013526 | 75 | 59 | 0.0 | 0.0 | 0.00 | 0.00 | 0.00 | 70 | 1012.2 |
| 20260505013024 | 75 | 90 | 0.0 | 0.9 | 0.00 | 0.00 | 0.00 | 70 | 1012.1 |
| 20260505012522 | 75 | 122 | 1.7 | 1.7 | 0.00 | 0.00 | 0.00 | 69 | 1012.2 |
| 20260505012019 | 75 | 122 | 0.0 | 0.0 | 0.00 | 0.00 | 0.00 | 69 | 1011.9 |
| 20260505011514 | 76 | 85 | 1.7 | 1.7 | 0.00 | 0.00 | 0.00 | 69 | 1011.9 |
| 20260505011011 | 76 | 98 | 0.0 | 0.0 | 0.00 | 0.00 | 0.00 | 69 | 1012.2 |
| 20260505010506 | 76 | 107 | 0.0 | 0.9 | 0.00 | 0.00 | 0.00 | 69 | 1012.3 |
| 20260505010003 | 76 | 91 | 0.0 | 0.0 | 0.00 | 0.00 | 0.00 | 68 | 1012.2 |
| 20260505005500 | 76 | 106 | 0.0 | 0.9 | 0.00 | 0.00 | 0.00 | 67 | 1012.1 |
| 20260505004958 | 77 | 111 | 0.0 | 0.0 | 0.00 | 0.00 | 0.00 | 66 | 1012.2 |
| 20260505004454 | 77 | 106 | 0.0 | 0.0 | 0.00 | 0.00 | 0.00 | 66 | 1012.3 |
| 20260505003951 | 77 | 106 | 0.0 | 0.9 | 0.00 | 0.00 | 0.00 | 66 | 1012.4 |
| 20260505003448 | 77 | 83 | 0.0 | 1.7 | 0.00 | 0.00 | 0.00 | 66 | 1012.5 |
| 20260505002944 | 77 | 82 | 0.0 | 0.0 | 0.00 | 0.00 | 0.00 | 65 | 1012.5 |
| 20260505002440 | 77 | 81 | 0.0 | 0.0 | 0.00 | 0.00 | 0.00 | 64 | 1012.5 |
| 20260505001939 | 77 | 111 | 0.0 | 0.9 | 0.00 | 0.00 | 0.00 | 64 | 1012.5 |
| 20260505001436 | 78 | 108 | 0.0 | 1.7 | 0.00 | 0.00 | 0.00 | 64 | 1012.3 |
| 20260505000933 | 78 | 75 | 0.0 | 0.9 | 0.00 | 0.00 | 0.00 | 63 | 1012.3 |
| 20260505000431 | 78 | 117 | 0.0 | 0.9 | 0.00 | 0.00 | 0.00 | 61 | 1012.2 |
| 20260504235927 | 78 | 120 | 0.0 | 1.7 | 0.00 | 0.00 | 0.00 | 62 | 1012.3 |
| 20260504235425 | 79 | 142 | 0.0 | 1.7 | 0.00 | 0.00 | 0.00 | 61 | 1012.3 |
| 20260504234921 | 79 | 77 | 0.0 | 2.6 | 0.00 | 0.00 | 0.00 | 61 | 1012.2 |
| 20260504234419 | 79 | 93 | 0.0 | 0.0 | 0.00 | 0.00 | 0.00 | 62 | 1012.5 |
| 20260504233915 | 79 | 146 | 0.9 | 1.7 | 0.00 | 0.00 | 0.00 | 61 | 1012.5 |
| 20260504233411 | 79 | 89 | 0.0 | 0.9 | 0.00 | 0.00 | 0.00 | 61 | 1012.1 |
| 20260504232908 | 79 | 118 | 0.0 | 0.0 | 0.00 | 0.00 | 0.00 | 60 | 1012.3 |
| 20260504232405 | 79 | 124 | 0.0 | 2.6 | 0.00 | 0.00 | 0.00 | 60 | 1012.5 |
| 20260504231902 | 80 | 114 | 0.0 | 0.9 | 0.00 | 0.00 | 0.00 | 59 | 1012.4 |
| 20260504231358 | 80 | 30 | 0.9 | 0.9 | 0.00 | 0.00 | 0.00 | 58 | 1012.8 |
| 20260504230854 | 80 | 109 | 0.0 | 0.9 | 0.00 | 0.00 | 0.00 | 58 | 1012.7 |
| 20260504230352 | 80 | 118 | 1.7 | 1.7 | 0.00 | 0.00 | 0.00 | 57 | 1012.9 |
| 20260504225851 | 80 | 53 | 0.0 | 3.5 | 0.00 | 0.00 | 0.00 | 58 | 1012.9 |
| 20260504225347 | 80 | 50 | 0.0 | 1.7 | 0.00 | 0.00 | 0.00 | 58 | 1013.0 |
| 20260504224844 | 80 | 103 | 0.9 | 0.9 | 0.00 | 0.00 | 0.00 | 59 | 1013.0 |
| 20260504224341 | 80 | 80 | 0.0 | 1.7 | 0.00 | 0.00 | 0.00 | 57 | 1012.8 |
| 20260504223838 | 80 | 122 | 0.9 | 1.7 | 0.00 | 0.00 | 0.00 | 57 | 1012.8 |
| 20260504223333 | 80 | 94 | 0.0 | 0.9 | 0.00 | 0.00 | 0.00 | 58 | 1013.3 |
| 20260504222830 | 81 | 97 | 0.9 | 0.9 | 0.00 | 0.00 | 0.00 | 58 | 1013.1 |
| 20260504222327 | 81 | 75 | 1.7 | 2.6 | 0.00 | 0.00 | 0.00 | 55 | 1013.3 |
| 20260504221825 | 81 | 100 | 0.9 | 1.7 | 0.00 | 0.00 | 0.00 | 56 | 1013.1 |
| 20260504221321 | 81 | 81 | 0.9 | 0.9 | 0.00 | 0.00 | 0.00 | 59 | 1013.3 |
| 20260504220819 | 81 | 91 | 0.0 | 0.0 | 0.00 | 0.00 | 0.00 | 56 | 1013.2 |
| 20260504220315 | 81 | 12 | 0.0 | 2.6 | 0.00 | 0.00 | 0.00 | 58 | 1013.3 |
| 20260504215813 | 81 | 106 | 0.0 | 0.9 | 0.00 | 0.00 | 0.00 | 56 | 1013.3 |
| 20260504215309 | 81 | 93 | 0.0 | 0.9 | 0.00 | 0.00 | 0.00 | 57 | 1013.5 |
| 20260504214805 | 81 | 119 | 0.0 | 1.7 | 0.00 | 0.00 | 0.00 | 56 | 1013.4 |
| 20260504214302 | 82 | 132 | 0.9 | 0.9 | 0.00 | 0.00 | 0.00 | 55 | 1013.7 |
| 20260504213758 | 81 | 96 | 0.0 | 0.0 | 0.00 | 0.00 | 0.00 | 54 | 1013.7 |
| 20260504213255 | 81 | 142 | 0.0 | 0.0 | 0.00 | 0.00 | 0.00 | 55 | 1013.8 |
| 20260504212752 | 81 | 124 | 4.3 | 8.7 | 0.00 | 0.00 | 0.00 | 54 | 1013.7 |
| 20260504212248 | 82 | 92 | 0.9 | 1.7 | 0.00 | 0.00 | 0.00 | 54 | 1014.1 |
| 20260504211746 | 82 | 105 | 0.9 | 0.9 | 0.00 | 0.00 | 0.00 | 54 | 1013.8 |
| 20260504211242 | 82 | 33 | 0.9 | 1.7 | 0.00 | 0.00 | 0.00 | 53 | 1013.9 |
| 20260504210739 | 82 | 103 | 0.0 | 0.9 | 0.00 | 0.00 | 0.00 | 53 | 1014.0 |
| 20260504210237 | 82 | 131 | 0.9 | 1.7 | 0.00 | 0.00 | 0.00 | 53 | 1014.4 |
| 20260504205733 | 82 | 58 | 0.0 | 0.9 | 0.00 | 0.00 | 0.00 | 53 | 1014.4 |
| 20260504205231 | 82 | 116 | 0.9 | 3.5 | 0.00 | 0.00 | 0.00 | 55 | 1014.4 |
| 20260504204729 | 82 | 132 | 0.9 | 2.6 | 0.00 | 0.00 | 0.00 | 53 | 1014.5 |
| 20260504204227 | 81 | 142 | 0.9 | 1.7 | 0.00 | 0.00 | 0.00 | 54 | 1014.5 |
| 20260504203726 | 81 | 246 | 0.0 | 0.9 | 0.00 | 0.00 | 0.00 | 53 | 1014.7 |
| 20260504203223 | 82 | 84 | 1.7 | 3.5 | 0.00 | 0.00 | 0.00 | 52 | 1014.5 |
| 20260504202723 | 82 | 106 | 0.0 | 3.5 | 0.00 | 0.00 | 0.00 | 52 | 1015.1 |
| 20260504202221 | 82 | 22 | 0.9 | 1.7 | 0.00 | 0.00 | 0.00 | 51 | 1014.9 |
| 20260504201718 | 83 | 69 | 0.0 | 0.0 | 0.00 | 0.00 | 0.00 | 52 | 1015.1 |
| 20260504201215 | 82 | 288 | 0.9 | 0.9 | 0.00 | 0.00 | 0.00 | 52 | 1015.4 |
| 20260504200713 | 82 | 101 | 0.9 | 6.1 | 0.00 | 0.00 | 0.00 | 53 | 1015.5 |
| 20260504200208 | 82 | 94 | 0.9 | 1.7 | 0.00 | 0.00 | 0.00 | 51 | 1015.5 |
| 20260504195705 | 82 | 81 | 0.0 | 0.9 | 0.00 | 0.00 | 0.00 | 53 | 1015.6 |
| 20260504195201 | 82 | 129 | 0.9 | 1.7 | 0.00 | 0.00 | 0.00 | 51 | 1015.6 |
| 20260504194658 | 82 | 104 | 0.9 | 1.7 | 0.00 | 0.00 | 0.00 | 53 | 1015.7 |
| 20260504194154 | 81 | 110 | 1.7 | 7.0 | 0.00 | 0.00 | 0.00 | 52 | 1015.7 |
| 20260504193650 | 80 | 95 | 0.0 | 0.0 | 0.00 | 0.00 | 0.00 | 53 | 1015.7 |
| 20260504193148 | 82 | 132 | 7.0 | 8.7 | 0.00 | 0.00 | 0.00 | 49 | 1015.8 |
| 20260504192646 | 82 | 101 | 0.9 | 2.6 | 0.00 | 0.00 | 0.00 | 50 | 1015.9 |
| 20260504192144 | 83 | 296 | 0.9 | 0.9 | 0.00 | 0.00 | 0.00 | 50 | 1015.9 |
| 20260504191642 | 83 | 93 | 0.9 | 1.7 | 0.00 | 0.00 | 0.00 | 48 | 1016.1 |
| 20260504191138 | 83 | 163 | 0.9 | 1.7 | 0.00 | 0.00 | 0.00 | 50 | 1016.4 |
| 20260504190634 | 83 | 145 | 1.7 | 7.0 | 0.00 | 0.00 | 0.00 | 46 | 1016.3 |
| 20260504190131 | 83 | 83 | 0.9 | 2.6 | 0.00 | 0.00 | 0.00 | 48 | 1016.3 |
| 20260504185627 | 83 | 113 | 0.9 | 1.7 | 0.00 | 0.00 | 0.00 | 46 | 1016.5 |
| 20260504185124 | 82 | 168 | 3.5 | 6.1 | 0.00 | 0.00 | 0.00 | 48 | 1016.5 |
| 20260504184620 | 82 | 334 | 0.9 | 1.7 | 0.00 | 0.00 | 0.00 | 47 | 1016.6 |
| 20260504184115 | 82 | 188 | 0.9 | 1.7 | 0.00 | 0.00 | 0.00 | 49 | 1016.6 |
| 20260504183613 | 82 | 100 | 0.9 | 0.9 | 0.00 | 0.00 | 0.00 | 50 | 1016.4 |
| 20260504183111 | 81 | 131 | 1.7 | 2.6 | 0.00 | 0.00 | 0.00 | 52 | 1016.6 |
| 20260504182607 | 82 | 104 | 3.5 | 6.1 | 0.00 | 0.00 | 0.00 | 48 | 1016.7 |
| 20260504182105 | 82 | 249 | 0.9 | 6.1 | 0.00 | 0.00 | 0.00 | 48 | 1016.7 |
| 20260504181601 | 82 | 38 | 0.9 | 0.9 | 0.00 | 0.00 | 0.00 | 50 | 1016.7 |
| 20260504181100 | 82 | 115 | 1.7 | 2.6 | 0.00 | 0.00 | 0.00 | 50 | 1017.0 |
| 20260504180558 | 81 | 117 | 1.7 | 2.6 | 0.00 | 0.00 | 0.00 | 49 | 1017.1 |
| 20260504180057 | 81 | 146 | 0.9 | 2.6 | 0.00 | 0.00 | 0.00 | 50 | 1017.1 |
| 20260504175554 | 81 | 275 | 1.7 | 1.7 | 0.00 | 0.00 | 0.00 | 50 | 1017.0 |
| 20260504175050 | 81 | 216 | 0.9 | 2.6 | 0.00 | 0.00 | 0.00 | 49 | 1016.9 |
| 20260504174549 | 80 | 79 | 0.0 | 1.7 | 0.00 | 0.00 | 0.00 | 51 | 1017.0 |
| 20260504174045 | 80 | 112 | 2.6 | 3.5 | 0.00 | 0.00 | 0.00 | 49 | 1017.3 |
| 20260504173542 | 80 | 126 | 0.9 | 0.9 | 0.00 | 0.00 | 0.00 | 51 | 1017.5 |
| 20260504173039 | 80 | 57 | 0.9 | 1.7 | 0.00 | 0.00 | 0.00 | 51 | 1017.5 |
| 20260504172535 | 79 | 145 | 0.0 | 0.0 | 0.00 | 0.00 | 0.00 | 52 | 1017.5 |
| 20260504172032 | 79 | 102 | 2.6 | 8.7 | 0.00 | 0.00 | 0.00 | 51 | 1017.5 |
| 20260504171529 | 79 | 84 | 0.9 | 3.5 | 0.00 | 0.00 | 0.00 | 51 | 1017.6 |
| 20260504171026 | 79 | 149 | 0.9 | 1.7 | 0.00 | 0.00 | 0.00 | 53 | 1017.6 |
| 20260504170522 | 79 | 113 | 0.0 | 1.7 | 0.00 | 0.00 | 0.00 | 51 | 1017.9 |
| 20260504160442 | 77 | 96 | 0.0 | 1.7 | 0.00 | 0.00 | 0.00 | 56 | 1018.5 |